TimeCST,TemperatureF,Dew PointF,Humidity,Sea Level PressureIn,VisibilityMPH,Wind Direction,Wind SpeedMPH,Gust SpeedMPH,PrecipitationIn,Events,Conditions,WindDirDegrees,DateUTC
12:15 AM,15.8,10.4,79,30.18,10.0,North,12.7,-,N/A,,Clear,350,2012-12-27 06:15:00
12:35 AM,15.8,10.4,79,30.20,10.0,North,10.4,-,N/A,,Partly Cloudy,350,2012-12-27 06:35:00
12:55 AM,15.8,10.4,79,30.20,10.0,North,12.7,-,N/A,,Mostly Cloudy,350,2012-12-27 06:55:00
1:15 AM,15.8,10.4,79,30.19,10.0,North,12.7,-,N/A,,Mostly Cloudy,10,2012-12-27 07:15:00
1:35 AM,15.8,10.4,79,30.18,10.0,North,13.8,-,N/A,,Partly Cloudy,360,2012-12-27 07:35:00
1:55 AM,15.8,10.4,79,30.19,10.0,North,12.7,-,N/A,,Clear,360,2012-12-27 07:55:00
2:15 AM,15.8,10.4,79,30.20,10.0,North,9.2,-,N/A,,Clear,10,2012-12-27 08:15:00
2:35 AM,12.2,8.6,85,30.21,10.0,NNE,8.1,-,N/A,,Partly Cloudy,20,2012-12-27 08:35:00
2:55 AM,12.2,6.8,79,30.20,10.0,North,8.1,-,N/A,,Clear,10,2012-12-27 08:55:00
3:15 AM,12.2,6.8,79,30.21,10.0,North,6.9,-,N/A,,Clear,360,2012-12-27 09:15:00
3:55 AM,12.2,8.6,85,30.20,10.0,North,10.4,-,N/A,,Clear,10,2012-12-27 09:55:00
4:15 AM,12.2,8.6,85,30.19,10.0,North,11.5,-,N/A,,Clear,10,2012-12-27 10:15:00
4:35 AM,12.2,6.8,79,30.19,10.0,NNE,8.1,-,N/A,,Clear,20,2012-12-27 10:35:00
4:55 AM,10.4,6.8,85,30.21,10.0,North,6.9,-,N/A,,Clear,360,2012-12-27 10:55:00
5:15 AM,10.4,6.8,85,30.21,10.0,North,9.2,-,N/A,,Clear,10,2012-12-27 11:15:00
5:35 AM,10.4,6.8,85,30.21,10.0,North,5.8,-,N/A,,Clear,10,2012-12-27 11:35:00
5:55 AM,10.4,3.2,73,30.21,10.0,Calm,Calm,-,N/A,,Clear,0,2012-12-27 11:55:00
6:15 AM,10.4,6.8,85,30.22,10.0,North,4.6,-,N/A,,Clear,10,2012-12-27 12:15:00
6:35 AM,12.2,8.6,85,30.23,10.0,North,3.5,-,N/A,,Clear,360,2012-12-27 12:35:00
6:55 AM,12.2,8.6,85,30.21,10.0,NE,5.8,-,N/A,,Mostly Cloudy,50,2012-12-27 12:55:00
7:15 AM,12.2,8.6,85,30.21,10.0,NE,8.1,-,N/A,,Mostly Cloudy,40,2012-12-27 13:15:00
7:35 AM,12.2,8.6,85,30.21,10.0,NE,6.9,-,N/A,,Mostly Cloudy,50,2012-12-27 13:35:00
7:55 AM,14.0,8.6,79,30.20,10.0,NE,8.1,-,N/A,,Mostly Cloudy,40,2012-12-27 13:55:00
8:15 AM,14.0,8.6,79,30.21,10.0,NNE,8.1,-,N/A,,Scattered Clouds,20,2012-12-27 14:15:00
8:35 AM,14.0,8.6,79,30.21,10.0,NNE,6.9,-,N/A,,Partly Cloudy,30,2012-12-27 14:35:00
8:55 AM,14.0,8.6,79,30.22,10.0,NNE,3.5,-,N/A,,Mostly Cloudy,20,2012-12-27 14:55:00
9:15 AM,15.8,10.4,79,30.22,10.0,NNE,3.5,-,N/A,,Overcast,30,2012-12-27 15:15:00
9:35 AM,17.6,10.4,73,30.22,10.0,NE,4.6,-,N/A,,Overcast,40,2012-12-27 15:35:00
9:55 AM,19.4,14.0,80,30.22,10.0,NNE,6.9,-,N/A,,Overcast,30,2012-12-27 15:55:00
10:35 AM,21.2,15.8,80,30.22,10.0,NE,6.9,-,N/A,,Overcast,50,2012-12-27 16:35:00
10:55 AM,23.0,15.8,74,30.24,10.0,Calm,Calm,-,N/A,,Overcast,0,2012-12-27 16:55:00
11:15 AM,24.8,15.8,69,30.24,10.0,East,5.8,-,N/A,,Overcast,90,2012-12-27 17:15:00
11:35 AM,24.8,15.8,69,30.21,10.0,ENE,8.1,-,N/A,,Overcast,60,2012-12-27 17:35:00
11:55 AM,24.8,17.6,74,30.19,10.0,NE,9.2,-,N/A,,Overcast,50,2012-12-27 17:55:00
12:15 PM,26.6,17.6,69,30.17,10.0,ENE,11.5,-,N/A,,Overcast,70,2012-12-27 18:15:00
12:35 PM,26.6,17.6,69,30.16,10.0,ENE,11.5,-,N/A,,Partly Cloudy,70,2012-12-27 18:35:00
12:55 PM,26.6,17.6,69,30.19,10.0,ENE,3.5,-,N/A,,Mostly Cloudy,70,2012-12-27 18:55:00
1:15 PM,26.6,19.4,74,30.17,10.0,ENE,8.1,-,N/A,,Overcast,70,2012-12-27 19:15:00
1:35 PM,26.6,17.6,69,30.17,10.0,ENE,6.9,-,N/A,,Overcast,70,2012-12-27 19:35:00
1:55 PM,26.6,17.6,69,30.17,10.0,ENE,5.8,-,N/A,,Overcast,70,2012-12-27 19:55:00
2:15 PM,26.6,17.6,69,30.16,10.0,ENE,5.8,-,N/A,,Overcast,60,2012-12-27 20:15:00
2:35 PM,26.6,19.4,74,30.16,10.0,ENE,6.9,-,N/A,,Overcast,60,2012-12-27 20:35:00
2:55 PM,26.6,19.4,74,30.16,10.0,ENE,8.1,-,N/A,,Overcast,70,2012-12-27 20:55:00
3:15 PM,26.6,19.4,74,30.16,10.0,ENE,8.1,-,N/A,,Overcast,60,2012-12-27 21:15:00
3:35 PM,26.6,19.4,74,30.15,10.0,ENE,9.2,-,N/A,,Overcast,60,2012-12-27 21:35:00
3:55 PM,26.6,19.4,74,30.15,10.0,ENE,10.4,-,N/A,,Overcast,60,2012-12-27 21:55:00
4:15 PM,26.6,19.4,74,30.13,10.0,ENE,12.7,-,N/A,,Overcast,60,2012-12-27 22:15:00
4:35 PM,26.6,19.4,74,30.13,10.0,ENE,11.5,-,N/A,,Overcast,60,2012-12-27 22:35:00
4:55 PM,26.6,19.4,74,30.14,10.0,ENE,10.4,-,N/A,,Overcast,70,2012-12-27 22:55:00
5:15 PM,26.6,19.4,74,30.14,10.0,ENE,10.4,-,N/A,,Overcast,60,2012-12-27 23:15:00
5:35 PM,26.6,19.4,74,30.14,10.0,ENE,9.2,-,N/A,,Overcast,60,2012-12-27 23:35:00
5:55 PM,26.6,19.4,74,30.15,10.0,ENE,8.1,-,N/A,,Overcast,70,2012-12-27 23:55:00
6:15 PM,26.6,19.4,74,30.15,10.0,ENE,9.2,-,N/A,,Overcast,70,2012-12-28 00:15:00
6:35 PM,26.6,19.4,74,30.16,10.0,East,5.8,-,N/A,,Overcast,80,2012-12-28 00:35:00
6:55 PM,26.6,19.4,74,30.15,10.0,ENE,9.2,-,N/A,,Overcast,70,2012-12-28 00:55:00
7:15 PM,26.6,19.4,74,30.16,10.0,ENE,6.9,-,N/A,,Overcast,70,2012-12-28 01:15:00
7:35 PM,26.6,19.4,74,30.16,10.0,ENE,8.1,-,N/A,,Overcast,70,2012-12-28 01:35:00
7:55 PM,26.6,19.4,74,30.14,10.0,ENE,9.2,-,N/A,,Mostly Cloudy,70,2012-12-28 01:55:00
8:15 PM,26.6,19.4,74,30.13,10.0,ENE,11.5,-,N/A,,Mostly Cloudy,70,2012-12-28 02:15:00
8:35 PM,26.6,21.2,80,30.14,10.0,East,10.4,-,N/A,,Overcast,80,2012-12-28 02:35:00
8:55 PM,26.6,21.2,80,30.14,10.0,ENE,9.2,-,N/A,,Overcast,70,2012-12-28 02:55:00
9:15 PM,26.6,21.2,80,30.14,10.0,ENE,9.2,-,N/A,,Overcast,70,2012-12-28 03:15:00
9:35 PM,26.6,21.2,80,30.14,10.0,East,8.1,-,N/A,,Overcast,80,2012-12-28 03:35:00
9:55 PM,26.6,21.2,80,30.12,10.0,East,10.4,-,N/A,,Overcast,90,2012-12-28 03:55:00
10:15 PM,26.6,21.2,80,30.12,10.0,East,9.2,-,N/A,,Overcast,90,2012-12-28 04:15:00
10:35 PM,26.6,21.2,80,30.13,10.0,East,9.2,-,N/A,,Overcast,90,2012-12-28 04:35:00
10:55 PM,26.6,21.2,80,30.12,10.0,East,10.4,-,N/A,,Overcast,90,2012-12-28 04:55:00
11:35 PM,26.6,21.2,80,30.12,10.0,ESE,9.2,-,N/A,,Overcast,110,2012-12-28 05:35:00
11:55 PM,26.6,21.2,80,30.12,10.0,ESE,6.9,-,N/A,,Overcast,110,2012-12-28 05:55:00